Total_Precipitation_Accumulation
2.70 2.26 3.69 3.91 3.53 3.18 2.95 3.02 3.19 3.16 3.28 3.28 3.17 2.88 2.77 2.82 3.02 3.03 2.75 2.48 2.41 2.47 2.78 2.92 2.93 3.01 2.85 2.80 2.82 2.92 3.05 3.20 3.25 2.84 2.69 2.61 2.49 2.52 2.63 2.78 3.01 3.34 2.94
1.91 1.93 3.27 3.73 3.55 3.31 3.20 3.17 3.23 3.24 3.24 3.18 3.04 2.92 2.63 2.51 2.76 3.12 2.83 2.67 2.47 2.40 2.55 2.77 2.90 3.08 3.02 2.99 3.12 3.14 3.12 3.16 3.26 3.04 2.98 2.98 2.86 2.76 2.49 2.58 3.02 3.33 2.80
1.66 1.82 2.62 3.61 3.52 3.22 3.26 3.21 3.13 3.09 2.99 2.88 2.79 2.61 2.57 2.48 2.53 2.85 2.73 2.70 2.57 2.48 2.55 2.75 2.99 3.22 3.25 3.26 3.40 3.38 3.26 3.33 3.36 3.11 3.28 3.64 3.20 3.10 2.87 2.70 2.68 2.76 2.71
1.37 1.59 2.18 3.10 2.99 2.89 2.92 2.74 2.67 2.65 2.57 2.58 2.60 2.41 2.41 2.45 2.60 2.91 2.83 2.63 2.48 2.39 2.48 2.74 3.05 3.17 3.23 3.31 3.37 3.52 3.45 3.53 3.44 2.97 3.03 3.44 3.41 3.33 3.26 3.06 2.75 2.69 2.95
1.18 1.51 2.27 2.95 2.75 2.74 2.71 2.47 2.48 2.39 2.34 2.37 2.47 2.40 2.48 2.48 2.57 2.80 2.84 2.79 2.72 2.72 2.72 2.91 3.01 3.06 3.24 3.29 3.36 3.54 3.62 3.62 3.36 2.68 2.65 3.12 3.87 3.75 3.33 3.21 3.02 2.94 3.11
1.24 1.40 1.96 2.59 2.51 2.44 2.40 2.46 2.44 2.29 2.25 2.24 2.29 2.34 2.40 2.47 2.50 2.65 2.78 2.69 2.61 2.85 3.11 3.28 3.25 3.22 3.31 3.37 3.30 3.49 3.71 3.44 2.83 2.64 2.77 3.19 3.70 3.71 3.24 2.98 3.06 3.19 3.34
1.12 1.17 1.56 2.28 2.29 2.23 2.26 2.35 2.41 2.31 2.31 2.21 2.21 2.39 2.44 2.41 2.43 2.57 2.78 2.72 2.60 2.74 3.18 3.43 3.48 3.40 3.26 3.26 3.39 3.38 3.47 3.08 2.59 2.65 2.81 3.16 3.32 3.52 3.21 3.01 3.15 3.29 3.53
1.23 1.15 1.34 2.04 2.20 2.11 2.21 2.23 2.29 2.38 2.34 2.22 2.21 2.27 2.38 2.49 2.45 2.56 2.61 2.67 2.58 2.63 2.88 3.04 3.05 3.21 3.10 3.11 3.23 3.13 3.07 2.61 2.19 2.34 2.61 3.08 3.53 3.56 3.07 2.84 2.88 3.13 3.39
1.49 1.43 1.50 1.72 1.90 2.06 2.17 2.19 2.31 2.43 2.37 2.20 2.10 2.10 2.16 2.28 2.25 2.23 2.26 2.44 2.52 2.64 2.71 2.76 2.93 3.11 3.12 3.14 3.05 3.11 3.03 2.48 2.12 2.31 2.27 3.03 3.85 3.78 3.29 2.92 2.76 2.94 3.20
1.42 1.41 1.45 1.59 1.67 1.71 1.86 2.23 2.51 2.86 2.72 2.27 1.97 1.82 1.97 1.97 1.92 2.02 2.08 2.35 2.61 2.79 3.02 3.09 3.23 3.11 3.10 2.96 2.76 2.85 2.78 2.20 2.14 2.13 2.47 3.14 4.13 3.94 3.44 3.00 2.71 2.63 2.74
1.11 1.16 1.26 1.36 1.41 1.48 1.50 1.77 2.31 2.77 2.76 2.29 1.89 1.82 1.74 1.49 1.47 1.63 1.88 2.34 2.64 2.88 3.23 3.34 3.26 3.05 2.79 2.61 2.48 2.41 2.11 1.89 2.11 2.23 2.65 3.42 4.01 3.91 3.33 2.90 2.62 2.54 2.45
0.96 0.92 0.93 0.94 1.05 1.12 1.13 1.47 1.79 1.84 2.05 1.78 1.71 1.63 1.58 1.57 1.58 1.36 1.52 2.02 2.35 2.54 2.85 3.10 3.02 2.62 2.08 1.87 1.97 1.97 1.65 1.62 1.78 2.01 2.66 3.64 4.18 3.97 3.31 2.87 2.67 2.57 2.42
0.85 0.83 0.75 0.75 0.82 0.97 1.11 1.28 1.49 1.64 1.80 1.76 1.69 1.71 1.81 1.77 1.48 1.32 1.40 1.55 1.77 1.94 1.99 2.21 2.27 1.93 1.63 1.55 1.70 1.67 1.52 1.50 1.66 1.90 2.65 3.62 4.22 4.07 3.38 2.94 2.77 2.70 2.64
0.68 0.78 0.74 0.60 0.63 0.72 0.80 0.98 1.15 1.35 1.55 1.60 1.44 1.42 1.58 1.66 1.49 1.37 1.53 1.58 1.69 1.84 1.92 1.97 1.96 1.78 1.45 1.36 1.49 1.50 1.38 1.46 1.56 1.74 2.30 2.97 3.67 3.93 3.61 3.15 2.97 2.79 2.81
0.69 0.76 0.79 0.70 0.65 0.69 0.75 0.81 0.83 1.13 1.31 1.47 1.53 1.34 1.46 1.55 1.51 1.40 1.36 1.52 1.53 1.67 1.74 1.86 1.95 1.83 1.62 1.44 1.42 1.41 1.49 1.48 1.44 1.44 1.78 2.17 2.63 3.32 3.62 3.52 3.32 3.11 3.06
0.65 0.75 0.76 0.77 0.74 0.74 0.76 0.76 0.75 0.82 0.91 1.01 0.99 0.98 1.15 1.30 1.34 1.36 1.26 1.34 1.44 1.65 1.91 2.03 1.88 1.81 1.68 1.62 1.63 1.57 1.57 1.52 1.47 1.36 1.51 1.71 1.76 2.15 2.80 3.39 3.58 3.43 3.33
0.62 0.68 0.75 0.80 0.86 0.85 0.86 0.91 0.88 0.83 0.85 0.85 0.82 0.82 0.92 1.05 1.15 1.25 1.31 1.31 1.37 1.63 1.94 2.16 2.03 1.91 1.73 1.71 1.71 1.67 1.60 1.58 1.50 1.43 1.53 1.69 1.57 1.60 2.06 2.79 3.46 3.66 3.47
0.63 0.58 0.63 0.67 0.76 0.80 0.85 0.90 0.99 0.98 0.97 0.96 0.97 0.93 0.89 1.05 1.16 1.26 1.36 1.32 1.35 1.60 1.89 2.16 2.22 2.21 2.11 2.02 1.93 1.81 1.71 1.84 1.68 1.56 1.63 1.77 1.88 1.72 1.78 2.20 2.76 3.27 3.42
0.59 0.51 0.50 0.56 0.60 0.63 0.66 0.74 0.86 0.93 0.99 1.08 1.07 1.08 1.11 1.18 1.20 1.31 1.53 1.56 1.57 1.75 1.86 1.90 2.08 2.13 2.21 2.17 1.92 1.88 1.79 1.91 2.01 1.90 1.98 2.07 2.10 2.01 1.89 1.86 2.09 2.36 2.94
0.52 0.52 0.50 0.52 0.53 0.51 0.52 0.62 0.76 0.84 0.90 1.09 1.15 1.20 1.47 1.62 1.42 1.38 1.56 1.62 1.68 1.94 1.99 2.03 2.28 2.28 2.21 2.27 2.02 1.90 1.88 1.89 1.93 2.15 2.30 2.32 2.28 2.07 2.03 1.90 2.01 1.97 2.39
0.37 0.35 0.42 0.44 0.52 0.52 0.46 0.49 0.64 0.78 0.91 1.06 1.25 1.25 1.47 1.60 1.51 1.55 1.62 1.68 1.73 1.86 1.92 2.03 2.40 2.46 2.30 2.15 2.34 2.34 2.24 2.04 1.96 2.05 2.19 2.43 2.51 2.29 2.18 2.19 2.10 2.01 1.96
0.35 0.30 0.32 0.34 0.43 0.53 0.56 0.59 0.74 0.94 1.06 1.18 1.35 1.38 1.45 1.47 1.45 1.40 1.63 1.80 1.79 1.95 2.00 2.15 2.46 2.72 2.46 2.26 2.64 3.12 2.87 2.57 2.21 1.97 2.03 2.10 2.35 2.34 2.18 2.06 1.97 1.97 1.93
0.30 0.26 0.30 0.39 0.50 0.66 0.82 1.05 1.33 1.64 1.80 1.69 1.58 1.67 1.75 1.79 1.71 1.66 1.78 1.96 1.93 2.01 2.12 2.16 2.25 2.77 2.94 2.67 2.60 3.21 3.09 2.83 2.77 2.22 1.82 1.73 2.01 2.22 2.23 2.10 2.01 2.07 2.07
0.34 0.39 0.49 0.64 0.79 0.93 1.12 1.32 1.61 1.90 2.11 2.12 2.16 2.22 2.17 2.09 1.97 1.84 1.89 2.00 2.05 2.14 2.12 1.94 2.09 2.60 3.13 3.18 2.93 2.69 2.53 2.46 2.64 2.56 1.99 1.65 1.71 1.91 2.16 2.06 2.06 2.15 2.19
0.52 0.65 0.78 1.07 1.24 1.33 1.35 1.42 1.65 1.76 1.86 1.97 2.13 2.20 2.19 2.12 2.01 1.86 1.83 2.00 2.11 2.19 2.17 2.20 2.34 2.63 2.97 3.26 3.22 2.94 2.65 2.41 1.99 2.16 2.21 1.98 1.69 1.61 1.72 1.87 2.04 2.11 2.15
0.84 1.08 1.23 1.39 1.61 1.53 1.39 1.37 1.48 1.63 1.73 1.84 2.01 2.08 2.01 1.90 1.87 1.83 1.84 1.90 1.91 2.00 2.10 2.25 2.48 2.62 2.81 3.03 3.10 2.79 2.64 2.54 2.31 2.12 1.95 2.03 1.99 1.68 1.54 1.56 1.69 1.89 1.97